User: anonymous   Login
Location: Unspecified
(0.0000°N, 0.0000°E)
Time: 00:15:41
(UTC+00:00)
Language:

UWE-1 - Orbit

View from above orbital plane
View from above orbital plane
View from above satellite
View from above satellite

Ground track
Ground track

The orbit data is extracted from the following two-line orbital elements,

1 28892U 05043C   17230.91560954 +.00000144 +00000-0 +36560-4 0  9996
2 28892 097.8774 028.9136 0015158 308.0563 051.9272 14.63364961629519
Epoch (UTC): 18 August 2017 21:58:28
Eccentricity: 0.0015158
inclination: 97.8774°
perigee height: 671 km
apogee height: 693 km
right ascension of ascending node: 28.9136°
argument of perigee: 308.0563°
revolutions per day: 14.63364961
mean anomaly at epoch: 51.9272°
orbit number at epoch: 62951

The dashed part of the orbit path shows where the satellite is in the earth's shadow,  

DLR